[[{"header":{"parameterUnit":"m.s-1","parameterCategory":1,"la1":30.2991,"la2":30.254,"lo1":-89.0895,"lo2":-89.0444,"dy":0.0017,"dx":0.0017,"nx":28,"ny":28,"refTime":"2023-11-08T03:00:00:Z","depth":0,"parameterNumber":2,"parameterNumberName":"U-component_of_WINDS"},"data":[0,0,0,0,0,0,0,0,0,0,0,0,0,0,0,0,0,0,0,0,0,0,0,0,0,0,0,0,0,0,0,0,0,0,0,0,0,0,0,0,0,0,0,0,0,0,0,0,0,0,0,0,0,0,0,0,0,0,0.9123,0.9124,0,0.9157,0.9158,0.9158,0.9138,0.9137,0.9136,0.9135,0.9171,0.9173,0.9175,0,0,0,0,0,0,0,0,0,0,0,0,0,0.9043,0.9044,0.9123,0.9124,0.9124,0.9157,0.9158,0.9158,0.9138,0.9137,0.9135,0.9134,0.9171,0.9173,0.9175,0,0,0,0,0,0,0,0,0,0,0,0,0,0.9077,0.9045,0.9123,0.9118,0.9118,0.9157,0.9158,0.9158,0.9138,0.9137,0.9135,0.9134,0.917,0.9173,0.9175,0.9222,0,0,0.9184,0.9185,0,0,0,0,0,0,0,0,0.9075,0.908,0.9118,0.9118,0.9118,0.9142,0.9143,0.918,0.9138,0.913,0.9135,0.9133,0.9163,0.9166,0.9176,0.9224,0.9225,0.9184,0.9186,0.9187,0.9188,0,0,0,0,0,0,0,0.9073,0.9079,0.9137,0.9119,0.9119,0.9114,0.9118,0.9149,0.9154,0.9131,0.913,0.9134,0.9162,0.9173,0.9176,0.9226,0.9184,0.9187,0.9188,0.9189,0.9314,0.9316,0,0,0,0,0,0,0.9071,0.9077,0.9136,0.9138,0.9093,0.9117,0.9121,0.9136,0.9154,0.9155,0.9135,0.9133,0.9169,0.9173,0.9177,0.9233,0.9187,0.919,0.9191,0.9313,0.9315,0.9317,0,0,0,0,0,0,0.9069,0.9076,0.9134,0.9107,0.9114,0.912,0.9137,0.9137,0.9148,0.9157,0.9158,0.9145,0.9168,0.9174,0.9211,0.9234,0.9191,0.9194,0.9311,0.9313,0.9316,0.9346,0,0,0,0,0,0,0.9067,0.9076,0.9093,0.9107,0.9116,0.9167,0.9138,0.9139,0.9152,0.915,0.9166,0.9168,0.9167,0.9207,0.9214,0.9238,0.9196,0.9309,0.9312,0.9315,0.9343,0.9349,0.9354,0,0,0,0,0,0.9064,0.9101,0.9094,0.9101,0.9137,0.9168,0.9173,0.9171,0.9154,0.9172,0.9178,0.9167,0.9231,0.9211,0.9219,0.9243,0.9307,0.9311,0.9315,0.934,0.9348,0.9354,0,0,0,0,0,0,0.9089,0.9102,0.9095,0.9137,0.9152,0.9165,0.9187,0.9179,0.9199,0.9195,0.9193,0.9197,0.9236,0.9243,0.9221,0.929,0.9267,0.9272,0.9283,0.9291,0.9296,0.9294,0.9198,0,0,0,0,0,0.91,0.9123,0.9134,0.917,0.9177,0.9181,0.9194,0.9192,0.9207,0.9213,0.9222,0.9237,0.926,0.9276,0.9298,0.9344,0.9347,0.9365,0.9371,0.9375,0.938,0.9405,0.9413,0.9329,0.9329,0.9329,0,0,0.9122,0.9132,0.9147,0.9175,0.9186,0.9211,0.9186,0.9214,0.9232,0.9217,0.9253,0.926,0.9277,0.9319,0.9338,0.9327,0.9404,0.938,0.9384,0.9386,0.9409,0.9417,0.9424,0.9331,0.9331,0.933,0,0,0.9174,0.9184,0.9215,0.9226,0.9243,0.9245,0.9253,0.9267,0.9271,0.9307,0.9296,0.9318,0.9359,0.9371,0.9383,0.9441,0.9432,0.9448,0.9478,0.9503,0.9509,0.9515,0.9536,0.9543,0.9453,0.9453,0.9453,0,0.9199,0.9236,0.9232,0.926,0.9273,0.926,0.9292,0.9304,0.9327,0.9336,0.9323,0.9374,0.9384,0.9429,0.9443,0.9453,0.9462,0.9446,0.9508,0.9514,0.952,0.9539,0.9547,0.9455,0.9455,0.9454,0.9454,0,0.9266,0.9291,0.9315,0.9337,0.9353,0.9382,0.9384,0.9401,0.9397,0.94,0.9437,0.945,0.9474,0.9484,0.9481,0.9529,0.9521,0.9508,0.9485,0.953,0.9548,0.9555,0.9457,0.9457,0.9456,0.9456,0,0,0.9335,0.9355,0.9363,0.9373,0.9391,0.9411,0.944,0.9464,0.9478,0.9494,0.9519,0.9554,0.9542,0.9556,0.9553,0.9575,0.962,0.9559,0.956,0.957,0.9673,0.9683,0.9692,0.9614,0.9615,0.9616,0.9672,0,0.9388,0.9439,0.9437,0.9485,0.9509,0.9497,0.9523,0.9537,0.9541,0.9563,0.9568,0.9592,0.9575,0.9583,0.9603,0.961,0.964,0.9606,0.9637,0.9639,0.9633,0.9701,0.9711,0.9763,0.9679,0.968,0.9681,0,0.9457,0.9475,0.9525,0.9539,0.9549,0.9573,0.9594,0.9614,0.963,0.9632,0.9647,0.9641,0.9672,0.9648,0.969,0.9667,0.968,0.9685,0.9687,0.969,0.9662,0.9706,0.9779,0.9787,0.9693,0.9692,0.9691,0,0.9502,0.9539,0.9574,0.9583,0.96,0.9617,0.9625,0.9639,0.9654,0.9673,0.9682,0.9704,0.9717,0.9735,0.9736,0.9718,0.9778,0.9754,0.9781,0.9781,0.9794,0.9793,0.9871,0.9803,0.9803,0.9803,0.9802,0,0.9561,0.9592,0.9595,0.9616,0.9651,0.9649,0.9683,0.969,0.9703,0.9725,0.9717,0.9739,0.9739,0.9761,0.9763,0.9797,0.9803,0.9806,0.9806,0.9806,0.9806,0.9815,0.9811,0.9805,0.9804,0.9804,0.9803,0,0.9617,0.962,0.9657,0.9671,0.9675,0.97,0.9711,0.9732,0.9736,0.9765,0.9772,0.9778,0.9804,0.9807,0.9837,0.9838,0.988,0.9876,0.9875,0.9874,0.99,0.9898,0.9986,0.9998,0.9922,0.9923,0.9924,0,0.9655,0.9678,0.9694,0.9709,0.9718,0.9741,0.9756,0.9755,0.9771,0.979,0.9809,0.9834,0.9854,0.9896,0.9903,0.9927,0.9923,0.9953,0.9927,0.9927,0.9924,0.9922,0.9924,0.9958,0.9958,0.9959,0.996,0,0.9721,0.9721,0.9742,0.9764,0.9781,0.9798,0.9814,0.9827,0.9828,0.9846,0.9872,0.9888,0.9919,0.9944,0.9967,0.9976,0.9968,0.9968,0.9975,0.9976,0.9974,0.9975,0.9888,0.9966,0.9965,0.9965,0.9964,0.9964,0.9769,0.9789,0.9804,0.9828,0.984,0.9855,0.9875,0.9881,0.9903,0.9928,0.9926,0.9955,0.9971,1.0001,1.0011,1.0034,1.0025,1.0035,1.0038,1.0041,1.0043,0.9971,1.0039,1.0038,1.0038,1.0038,1.0038,0,0.9835,0.9843,0.9865,0.9888,0.9907,0.9898,0.9915,0.9931,0.9957,0.9972,0.9992,1.0022,1.0046,1.0056,1.008,1.0097,1.0094,1.0103,1.0102,1.0104,1.0051,1.0042,1.0105,1.0105,1.0105,1.0105,1.0105,1.0105,0.9871,0.9905,0.9907,0.9947,0.9956,0.9984,0.9995,1.0009,1.0021,1.0055,1.0075,1.0081,1.0094,1.0119,1.0141,1.0144,1.0153,1.0163,1.0164,1.0114,1.0108,1.0101,1.0093,1.0166,1.0166,1.0216,1.0216,1.0216]},{"header":{"parameterUnit":"m.s-1","parameterCategory":1,"la1":30.2991,"la2":30.254,"lo1":-89.0895,"lo2":-89.0444,"dy":0.0017,"dx":0.0017,"nx":28,"ny":28,"refTime":"2023-11-08T03:00:00:Z","depth":0,"parameterNumber":3,"parameterNumberName":"V-component_of_WINDS"},"data":[0,0,0,0,0,0,0,0,0,0,0,0,0,0,0,0,0,0,0,0,0,0,0,0,0,0,0,0,0,0,0,0,0,0,0,0,0,0,0,0,0,0,0,0,0,0,0,0,0,0,0,0,0,0,0,0,0,0,2.4131,2.4132,0,2.4177,2.4177,2.4178,2.4157,2.4156,2.4154,2.4153,2.4202,2.4204,2.4206,0,0,0,0,0,0,0,0,0,0,0,0,0,2.4027,2.4029,2.4131,2.4132,2.4132,2.4177,2.4177,2.4178,2.4157,2.4156,2.4154,2.4153,2.4201,2.4204,2.4206,0,0,0,0,0,0,0,0,0,0,0,0,0,2.4073,2.403,2.4131,2.4127,2.4127,2.4177,2.4177,2.4178,2.4157,2.4155,2.4154,2.4152,2.42,2.4203,2.4207,2.4263,0,0,2.4218,2.4219,0,0,0,0,0,0,0,0,2.407,2.4076,2.4127,2.4127,2.4128,2.4159,2.4158,2.4207,2.4158,2.4146,2.4153,2.4151,2.4189,2.4193,2.4206,2.4265,2.4267,2.4218,2.422,2.4222,2.4223,0,0,0,0,0,0,0,2.4067,2.4074,2.4149,2.4128,2.4128,2.4124,2.4128,2.4167,2.4177,2.4147,2.4145,2.4151,2.4189,2.4202,2.4207,2.4268,2.4218,2.4221,2.4223,2.4224,2.4377,2.4379,0,0,0,0,0,0,2.4064,2.4072,2.4148,2.4151,2.4094,2.4127,2.4132,2.4151,2.4176,2.4178,2.4152,2.415,2.4197,2.4203,2.4208,2.4277,2.4222,2.4225,2.4227,2.4376,2.4378,2.438,0,0,0,0,0,0,2.4062,2.4071,2.4146,2.4111,2.412,2.413,2.4152,2.4153,2.4166,2.418,2.4182,2.4164,2.4196,2.4203,2.425,2.4278,2.4226,2.423,2.4373,2.4376,2.4379,2.4414,0,0,0,0,0,0,2.4059,2.407,2.4091,2.4112,2.4122,2.4186,2.4154,2.4155,2.4172,2.4169,2.4192,2.4194,2.4195,2.4245,2.4253,2.4282,2.4232,2.4371,2.4375,2.4378,2.441,2.4417,2.4424,0,0,0,0,0,2.4055,2.4099,2.4092,2.4102,2.4149,2.4188,2.4194,2.4194,2.4175,2.4196,2.4205,2.4194,2.4273,2.425,2.4259,2.4289,2.4369,2.4374,2.4378,2.4407,2.4416,2.4423,0,0,0,0,0,0,2.4082,2.4102,2.4094,2.4146,2.4166,2.4184,2.4212,2.4203,2.4229,2.4225,2.4224,2.4229,2.4278,2.4288,2.4261,2.4346,2.4318,2.4325,2.4337,2.4346,2.4352,2.4349,2.4235,0,0,0,0,0,2.4094,2.4124,2.414,2.4184,2.4194,2.4201,2.4218,2.4217,2.4237,2.4245,2.4257,2.4278,2.4307,2.4327,2.4355,2.4411,2.4416,2.4437,2.4443,2.4449,2.4455,2.4486,2.4496,2.4394,2.4394,2.4394,0,0,2.412,2.4134,2.4153,2.419,2.4205,2.4236,2.4208,2.4243,2.4266,2.425,2.4295,2.4305,2.4328,2.4379,2.4403,2.4389,2.4484,2.4455,2.4459,2.4462,2.4492,2.4501,2.451,2.4397,2.4397,2.4396,0,0,2.4182,2.4195,2.4234,2.4249,2.4272,2.4276,2.4286,2.4306,2.4312,2.4356,2.4345,2.4374,2.4425,2.4441,2.4457,2.4526,2.4516,2.4535,2.4571,2.4601,2.4609,2.4616,2.4642,2.4651,2.4541,2.4541,2.4541,0,2.4211,2.4257,2.4255,2.4291,2.4308,2.4294,2.4334,2.4349,2.438,2.4392,2.4377,2.4441,2.4455,2.4511,2.4528,2.454,2.4552,2.4533,2.4608,2.4615,2.4622,2.4646,2.4656,2.4543,2.4543,2.4542,2.4542,0,2.4292,2.4324,2.4353,2.4383,2.4403,2.444,2.4445,2.4466,2.4462,2.4468,2.4515,2.4531,2.4563,2.4576,2.4573,2.4632,2.4623,2.4608,2.4581,2.4634,2.4657,2.4666,2.4546,2.4545,2.4545,2.4544,0,0,2.4373,2.4401,2.4412,2.4425,2.4449,2.4475,2.4512,2.4542,2.4561,2.4582,2.4614,2.4658,2.4644,2.4661,2.466,2.4687,2.4742,2.4669,2.4669,2.4683,2.4809,2.482,2.4831,2.4735,2.4737,2.4738,2.4807,0,2.4437,2.4502,2.4501,2.4561,2.4592,2.458,2.4612,2.4631,2.4638,2.4665,2.4673,2.4704,2.4683,2.4694,2.472,2.473,2.4767,2.4724,2.4766,2.4767,2.4761,2.4843,2.4855,2.4919,2.4816,2.4817,2.4818,0,2.4521,2.4546,2.4609,2.4629,2.4641,2.4671,2.4699,2.4725,2.4746,2.4749,2.4769,2.4764,2.4802,2.4773,2.4827,2.4798,2.4815,2.4822,2.4825,2.4829,2.4797,2.4851,2.494,2.495,2.4832,2.4831,2.483,0,2.4575,2.4624,2.4668,2.468,2.4704,2.4725,2.4736,2.4755,2.4774,2.4799,2.4811,2.484,2.4856,2.4879,2.4883,2.4861,2.4937,2.4908,2.4942,2.4942,2.4959,2.4958,2.5053,2.4968,2.4968,2.4968,2.4968,0,2.4648,2.4687,2.4692,2.472,2.4763,2.4763,2.4806,2.4816,2.4833,2.4863,2.4854,2.4882,2.4884,2.4913,2.4915,2.496,2.4967,2.4971,2.4972,2.4973,2.4972,2.4984,2.498,2.497,2.497,2.4969,2.4969,0,2.4716,2.472,2.4768,2.4787,2.4793,2.4824,2.4841,2.4867,2.4873,2.4911,2.492,2.493,2.4963,2.4968,2.5008,2.501,2.5064,2.5059,2.5056,2.5056,2.509,2.5087,2.5197,2.5211,2.5116,2.5117,2.5118,0,2.4762,2.4792,2.4814,2.4833,2.4845,2.4876,2.4895,2.4895,2.4916,2.4942,2.4966,2.4998,2.5024,2.5079,2.509,2.512,2.5117,2.5153,2.5122,2.5122,2.5119,2.5117,2.5121,2.516,2.5161,2.5162,2.5162,0,2.4844,2.4845,2.4873,2.4901,2.4924,2.4947,2.4968,2.4984,2.4987,2.5011,2.5045,2.5065,2.5105,2.5138,2.5169,2.5181,2.5173,2.5172,2.5182,2.5184,2.5181,2.5184,2.5074,2.517,2.5169,2.5169,2.5168,2.5168,2.4903,2.493,2.495,2.4981,2.4997,2.5017,2.5043,2.5052,2.508,2.5113,2.5112,2.515,2.5171,2.521,2.5225,2.5255,2.5243,2.5257,2.526,2.5264,2.5268,2.5176,2.526,2.526,2.526,2.526,2.5259,0,2.4986,2.4998,2.5027,2.5057,2.5081,2.5071,2.5094,2.5116,2.5149,2.5169,2.5195,2.5234,2.5266,2.528,2.5312,2.5333,2.533,2.5342,2.5341,2.5344,2.5276,2.5265,2.5343,2.5343,2.5343,2.5343,2.5343,2.5343,2.5032,2.5076,2.508,2.5132,2.5144,2.5181,2.5195,2.5214,2.523,2.5275,2.5301,2.5309,2.5327,2.536,2.5389,2.5393,2.5405,2.5418,2.542,2.5357,2.5348,2.534,2.533,2.5421,2.5421,2.5486,2.5486,2.5487]}]]